Time,TemperatureF,DewpointF,PressureIn,WindDirection,WindDirectionDegrees,WindSpeedMPH,WindSpeedGustMPH,Humidity,HourlyPrecipIn,Conditions,Clouds,dailyrainin,SolarRadiationWatts/m^2,SoftwareType,DateUTC
2013-07-10 00:01:00,88.0,31.0,30.03,South,176,8.0,11.0,13,0.00,,,0.00,0.000000,,2013-07-10 07:01:00,
2013-07-10 00:11:00,88.0,29.0,30.03,SW,215,3.0,13.0,12,0.00,,,0.00,0.000000,,2013-07-10 07:11:00,
2013-07-10 00:21:00,88.0,29.0,30.03,WSW,240,4.0,7.0,12,0.00,,,0.00,0.000000,,2013-07-10 07:21:00,
2013-07-10 00:32:00,88.0,31.0,30.03,SW,221,2.0,7.0,13,0.00,,,0.00,0.000000,,2013-07-10 07:32:00,
2013-07-10 00:43:00,88.0,31.0,30.02,SW,220,4.0,11.0,13,0.00,,,0.00,0.000000,,2013-07-10 07:43:00,
2013-07-10 00:53:00,88.0,29.0,30.02,South,185,5.0,9.0,12,0.00,,,0.00,0.000000,,2013-07-10 07:53:00,
2013-07-10 01:01:00,87.0,30.0,30.02,South,181,2.0,7.0,13,0.00,,,0.00,0.000000,,2013-07-10 08:01:00,
2013-07-10 01:11:00,87.0,30.0,30.02,SSE,167,6.0,10.0,13,0.00,,,0.00,0.000000,,2013-07-10 08:11:00,
2013-07-10 01:22:00,87.0,30.0,30.01,SSW,211,4.0,8.0,13,0.00,,,0.00,0.000000,,2013-07-10 08:22:00,
2013-07-10 01:32:00,86.0,29.0,30.01,SSE,160,6.0,9.0,13,0.00,,,0.00,0.000000,,2013-07-10 08:32:00,
2013-07-10 01:42:00,86.0,29.0,30.01,SSE,164,4.0,6.0,13,0.00,,,0.00,0.000000,,2013-07-10 08:42:00,
2013-07-10 01:53:00,85.0,29.0,30.01,South,171,6.0,10.0,13,0.00,,,0.00,0.000000,,2013-07-10 08:53:00,
2013-07-10 02:02:00,84.0,30.0,30.01,South,177,7.0,10.0,14,0.00,,,0.00,0.000000,,2013-07-10 09:02:00,
2013-07-10 02:12:00,84.0,30.0,30.02,South,191,8.0,14.0,14,0.00,,,0.00,0.000000,,2013-07-10 09:12:00,
2013-07-10 02:21:00,84.0,30.0,30.01,SW,222,7.0,11.0,14,0.00,,,0.00,0.000000,,2013-07-10 09:21:00,
2013-07-10 02:32:00,85.0,29.0,30.01,SW,226,7.0,10.0,13,0.00,,,0.00,0.000000,,2013-07-10 09:32:00,
2013-07-10 02:42:00,86.0,29.0,30.01,SW,222,7.0,13.0,13,0.00,,,0.00,0.000000,,2013-07-10 09:42:00,
2013-07-10 02:52:00,87.0,28.0,30.00,West,261,7.0,13.0,12,0.00,,,0.00,0.000000,,2013-07-10 09:52:00,
2013-07-10 03:01:00,88.0,29.0,30.00,SW,216,4.0,12.0,12,0.00,,,0.00,0.000000,,2013-07-10 10:01:00,
2013-07-10 03:13:00,88.0,29.0,30.00,SW,233,3.0,11.0,12,0.00,,,0.00,0.000000,,2013-07-10 10:13:00,
2013-07-10 03:23:00,88.0,29.0,29.99,SW,226,4.0,15.0,12,0.00,,,0.00,0.000000,,2013-07-10 10:23:00,
2013-07-10 03:32:00,88.0,29.0,29.99,WSW,250,6.0,13.0,12,0.00,,,0.00,0.000000,,2013-07-10 10:32:00,
2013-07-10 03:50:00,-999.0,-99.9,29.99,SW,221,7.0,13.0,-999,-99.99,,,-99.99,,,2013-07-10 10:50:00,
2013-07-10 04:00:00,-999.0,-99.9,29.99,WSW,246,9.0,14.0,-999,-99.99,,,-99.99,,,2013-07-10 11:00:00,
2013-07-10 04:11:00,87.0,28.0,30.00,SW,215,12.0,16.0,12,0.00,,,0.00,0.000000,,2013-07-10 11:11:00,
2013-07-10 04:22:00,87.0,28.0,29.99,SSW,207,12.0,16.0,12,0.00,,,0.00,0.000000,,2013-07-10 11:22:00,
2013-07-10 04:33:00,88.0,29.0,29.99,WSW,252,7.0,13.0,12,0.00,,,0.00,0.000000,,2013-07-10 11:33:00,
2013-07-10 04:43:00,88.0,29.0,29.99,SSW,203,8.0,14.0,12,0.00,,,0.00,0.000000,,2013-07-10 11:43:00,
2013-07-10 04:52:00,88.0,29.0,29.99,SSW,207,9.0,13.0,12,0.00,,,0.00,0.000000,,2013-07-10 11:52:00,
2013-07-10 05:01:00,88.0,29.0,29.99,WSW,246,6.0,11.0,12,0.00,,,0.00,0.000000,,2013-07-10 12:01:00,
2013-07-10 05:11:00,88.0,29.0,29.99,SSW,203,4.0,12.0,12,0.00,,,0.00,0.000000,,2013-07-10 12:11:00,
2013-07-10 05:22:00,88.0,29.0,29.99,SW,223,4.0,9.0,12,0.00,,,0.00,0.000000,,2013-07-10 12:22:00,
2013-07-10 05:32:00,88.0,29.0,29.99,SW,214,5.0,7.0,12,0.00,,,0.00,0.000000,,2013-07-10 12:32:00,
2013-07-10 05:42:00,87.0,28.0,29.99,SSW,210,6.0,7.0,12,0.00,,,0.00,0.000000,,2013-07-10 12:42:00,
2013-07-10 05:52:00,87.0,30.0,30.00,SW,219,4.0,10.0,13,0.00,,,0.00,0.000000,,2013-07-10 12:52:00,
2013-07-10 06:01:00,87.0,30.0,30.00,SW,214,5.0,9.0,13,0.00,,,0.00,0.000000,,2013-07-10 13:01:00,
2013-07-10 06:11:00,87.0,30.0,30.00,SW,214,5.0,9.0,13,0.00,,,0.00,0.000000,,2013-07-10 13:11:00,
2013-07-10 06:21:00,86.0,29.0,30.00,SW,233,5.0,12.0,13,0.00,,,0.00,14.000000,,2013-07-10 13:21:00,
2013-07-10 06:32:00,87.0,28.0,30.00,SSW,205,6.0,12.0,12,0.00,,,0.00,21.000000,,2013-07-10 13:32:00,
2013-07-10 06:42:00,87.0,28.0,30.01,South,187,8.0,11.0,12,0.00,,,0.00,32.000000,,2013-07-10 13:42:00,
2013-07-10 06:52:00,87.0,28.0,30.01,South,190,10.0,13.0,12,0.00,,,0.00,35.000000,,2013-07-10 13:52:00,
2013-07-10 07:01:00,87.0,28.0,30.01,SSW,206,5.0,14.0,12,0.00,,,0.00,46.000000,,2013-07-10 14:01:00,
2013-07-10 07:11:00,87.0,30.0,30.01,SW,218,5.0,9.0,13,0.00,,,0.00,58.000000,,2013-07-10 14:11:00,
2013-07-10 07:22:00,87.0,28.0,30.02,SSE,165,9.0,11.0,12,0.00,,,0.00,63.000000,,2013-07-10 14:22:00,
2013-07-10 07:33:00,87.0,28.0,30.02,South,178,7.0,11.0,12,0.00,,,0.00,84.000000,,2013-07-10 14:33:00,
2013-07-10 07:43:00,88.0,29.0,30.00,SW,227,11.0,21.0,12,0.00,,,0.00,120.000000,,2013-07-10 14:43:00,
2013-07-10 07:53:00,89.0,30.0,30.00,SSW,195,14.0,17.0,12,0.00,,,0.00,153.000000,,2013-07-10 14:53:00,
2013-07-10 08:11:00,90.0,31.0,30.03,SSW,210,14.0,17.0,12,0.00,,,0.00,127.000000,,2013-07-10 15:11:00,
2013-07-10 08:22:00,90.0,31.0,30.03,SSW,204,8.0,17.0,12,0.00,,,0.00,130.000000,,2013-07-10 15:22:00,
2013-07-10 08:34:00,90.0,31.0,30.03,South,173,11.0,13.0,12,0.00,,,0.00,148.000000,,2013-07-10 15:34:00,
2013-07-10 08:42:00,90.0,28.0,30.01,SSW,198,11.0,16.0,11,0.00,,,0.00,156.000000,,2013-07-10 15:42:00,
2013-07-10 08:52:00,91.0,31.0,30.01,SSW,210,11.0,19.0,12,0.00,,,0.00,237.000000,,2013-07-10 15:52:00,
2013-07-10 09:01:00,92.0,30.0,30.01,WSW,255,10.0,17.0,11,0.00,,,0.00,327.000000,,2013-07-10 16:01:00,
2013-07-10 09:11:00,92.0,30.0,30.04,WSW,248,6.0,9.0,11,0.00,,,0.00,316.000000,,2013-07-10 16:11:00,
2013-07-10 09:22:00,92.0,32.0,30.03,SSW,210,7.0,15.0,12,0.00,,,0.00,302.000000,,2013-07-10 16:22:00,
2013-07-10 09:33:00,93.0,31.0,30.03,SW,224,9.0,18.0,11,0.00,,,0.00,318.000000,,2013-07-10 16:33:00,
2013-07-10 09:44:00,93.0,31.0,30.01,SW,229,12.0,17.0,11,0.00,,,0.00,353.000000,,2013-07-10 16:44:00,
2013-07-10 09:52:00,94.0,27.0,30.00,West,263,5.0,16.0,9,0.00,,,0.00,362.000000,,2013-07-10 16:52:00,
2013-07-10 10:01:00,94.0,27.0,30.00,West,271,3.0,14.0,9,0.00,,,0.00,360.000000,,2013-07-10 17:01:00,
2013-07-10 10:11:00,94.0,27.0,30.02,West,278,2.0,7.0,9,0.00,,,0.00,373.000000,,2013-07-10 17:11:00,
2013-07-10 10:22:00,94.0,27.0,30.02,West,274,3.0,5.0,9,0.00,,,0.00,476.000000,,2013-07-10 17:22:00,
2013-07-10 10:32:00,95.0,24.0,30.02,NW,307,4.0,6.0,8,0.00,,,0.00,568.000000,,2013-07-10 17:32:00,
2013-07-10 10:42:00,97.0,26.0,30.00,NW,321,2.0,5.0,8,0.00,,,0.00,1079.000000,,2013-07-10 17:42:00,
2013-07-10 10:52:00,97.0,26.0,30.00,NW,321,2.0,5.0,8,0.00,,,0.00,1079.000000,,2013-07-10 17:52:00,
2013-07-10 11:01:00,99.0,30.0,30.01,SW,225,8.0,12.0,9,0.00,,,0.00,661.000000,,2013-07-10 18:01:00,
2013-07-10 11:11:00,99.0,30.0,30.01,WSW,247,6.0,18.0,9,0.00,,,0.00,671.000000,,2013-07-10 18:11:00,
2013-07-10 11:21:00,100.0,31.0,30.00,SSE,160,8.0,16.0,9,0.00,,,0.00,772.000000,,2013-07-10 18:21:00,
2013-07-10 11:32:00,102.0,32.0,30.00,WSW,238,10.0,16.0,9,0.00,,,0.00,1085.000000,,2013-07-10 18:32:00,
2013-07-10 11:44:00,101.0,32.0,30.00,SW,223,10.0,17.0,9,0.00,,,0.00,543.000000,,2013-07-10 18:44:00,
2013-07-10 11:52:00,101.0,32.0,30.00,SW,226,13.0,15.0,9,0.00,,,0.00,473.000000,,2013-07-10 18:52:00,
2013-07-10 12:01:00,101.0,32.0,30.00,WSW,242,9.0,14.0,9,0.00,,,0.00,519.000000,,2013-07-10 19:01:00,
2013-07-10 12:11:00,102.0,26.0,29.99,SW,224,11.0,13.0,7,0.00,,,0.00,598.000000,,2013-07-10 19:11:00,
2013-07-10 12:21:00,102.0,32.0,29.98,SSW,196,8.0,14.0,9,0.00,,,0.00,524.000000,,2013-07-10 19:21:00,
2013-07-10 12:32:00,102.0,32.0,29.98,SSW,210,10.0,17.0,9,0.00,,,0.00,485.000000,,2013-07-10 19:32:00,
2013-07-10 12:42:00,102.0,32.0,29.98,SSW,195,6.0,16.0,9,0.00,,,0.00,563.000000,,2013-07-10 19:42:00,
2013-07-10 12:52:00,103.0,33.0,29.98,SSE,148,11.0,15.0,9,0.00,,,0.00,522.000000,,2013-07-10 19:52:00,
2013-07-10 13:01:00,105.0,35.0,29.98,SSE,167,5.0,15.0,9,0.00,,,0.00,1306.000000,,2013-07-10 20:01:00,
2013-07-10 13:11:00,106.0,35.0,29.97,West,271,5.0,12.0,9,0.00,,,0.00,1153.000000,,2013-07-10 20:11:00,
2013-07-10 13:22:00,106.0,35.0,29.96,NW,308,12.0,18.0,9,0.00,,,0.00,584.000000,,2013-07-10 20:22:00,
2013-07-10 13:32:00,105.0,37.0,29.96,WSW,257,8.0,16.0,10,0.00,,,0.00,663.000000,,2013-07-10 20:32:00,
2013-07-10 13:42:00,104.0,37.0,29.97,West,276,8.0,18.0,10,0.00,,,0.00,431.000000,,2013-07-10 20:42:00,
2013-07-10 13:52:00,103.0,38.0,29.97,WSW,244,12.0,18.0,11,0.00,,,0.00,383.000000,,2013-07-10 20:52:00,
2013-07-10 14:01:00,102.0,38.0,29.97,West,275,10.0,22.0,11,0.00,,,0.00,673.000000,,2013-07-10 21:01:00,
2013-07-10 14:11:00,102.0,38.0,29.97,SW,216,9.0,17.0,11,0.00,,,0.00,473.000000,,2013-07-10 21:11:00,
2013-07-10 14:21:00,103.0,38.0,29.97,WSW,257,10.0,20.0,11,0.00,,,0.00,587.000000,,2013-07-10 21:21:00,
2013-07-10 14:32:00,103.0,38.0,29.97,West,261,12.0,23.0,11,0.00,,,0.00,740.000000,,2013-07-10 21:32:00,
2013-07-10 14:41:00,103.0,38.0,29.96,West,259,16.0,24.0,11,0.00,,,0.00,446.000000,,2013-07-10 21:41:00,
2013-07-10 14:51:00,102.0,38.0,29.95,WSW,245,10.0,20.0,11,0.00,,,0.00,396.000000,,2013-07-10 21:51:00,
2013-07-10 15:01:00,102.0,40.0,29.95,West,279,9.0,22.0,12,0.00,,,0.00,434.000000,,2013-07-10 22:01:00,
2013-07-10 15:11:00,102.0,40.0,29.95,WSW,247,10.0,17.0,12,0.00,,,0.00,371.000000,,2013-07-10 22:11:00,
2013-07-10 15:21:00,102.0,40.0,29.95,WSW,257,7.0,18.0,12,0.00,,,0.00,311.000000,,2013-07-10 22:21:00,
2013-07-10 15:33:00,101.0,41.0,29.95,WSW,257,10.0,20.0,13,0.00,,,0.00,283.000000,,2013-07-10 22:33:00,
2013-07-10 15:42:00,101.0,41.0,29.95,WSW,248,7.0,16.0,13,0.00,,,0.00,246.000000,,2013-07-10 22:42:00,
2013-07-10 15:53:00,100.0,40.0,29.95,SW,236,7.0,18.0,13,0.00,,,0.00,288.000000,,2013-07-10 22:53:00,
2013-07-10 16:01:00,100.0,38.0,29.95,WSW,238,12.0,17.0,12,0.00,,,0.00,322.000000,,2013-07-10 23:01:00,
2013-07-10 16:11:00,101.0,39.0,29.94,SW,224,11.0,18.0,12,0.00,,,0.00,214.000000,,2013-07-10 23:11:00,
2013-07-10 16:21:00,100.0,40.0,29.93,SW,233,9.0,16.0,13,0.00,,,0.00,160.000000,,2013-07-10 23:21:00,
2013-07-10 16:32:00,100.0,40.0,29.93,WSW,257,12.0,20.0,13,0.00,,,0.00,149.000000,,2013-07-10 23:32:00,
2013-07-10 16:42:00,100.0,40.0,29.93,WSW,257,12.0,20.0,13,0.00,,,0.00,149.000000,,2013-07-10 23:42:00,
2013-07-10 16:52:00,99.0,40.0,29.93,SW,233,12.0,17.0,13,0.00,,,0.00,139.000000,,2013-07-10 23:52:00,
2013-07-10 17:01:00,99.0,40.0,29.93,WSW,248,14.0,22.0,13,0.00,,,0.00,153.000000,,2013-07-11 00:01:00,
2013-07-10 17:11:00,99.0,40.0,29.93,SW,226,8.0,15.0,13,0.00,,,0.00,162.000000,,2013-07-11 00:11:00,
2013-07-10 17:22:00,99.0,40.0,29.93,SW,223,9.0,21.0,13,0.00,,,0.00,181.000000,,2013-07-11 00:22:00,
2013-07-10 17:32:00,99.0,40.0,29.93,WSW,256,9.0,19.0,13,0.00,,,0.00,139.000000,,2013-07-11 00:32:00,
2013-07-10 17:42:00,98.0,39.0,29.93,SW,236,9.0,18.0,13,0.00,,,0.00,107.000000,,2013-07-11 00:42:00,
2013-07-10 17:51:00,98.0,39.0,29.93,SW,236,9.0,18.0,13,0.00,,,0.00,107.000000,,2013-07-11 00:51:00,
2013-07-10 18:01:00,98.0,41.0,29.93,WSW,243,5.0,14.0,14,0.00,,,0.00,109.000000,,2013-07-11 01:01:00,
2013-07-10 18:11:00,98.0,41.0,29.93,West,261,9.0,13.0,14,0.00,,,0.00,128.000000,,2013-07-11 01:11:00,
2013-07-10 18:22:00,98.0,41.0,29.93,West,261,9.0,13.0,14,0.00,,,0.00,128.000000,,2013-07-11 01:22:00,
2013-07-10 18:32:00,98.0,41.0,29.93,West,263,9.0,14.0,14,0.00,,,0.00,98.000000,,2013-07-11 01:32:00,
2013-07-10 18:43:00,97.0,42.0,29.93,WSW,250,11.0,18.0,15,0.00,,,0.00,39.000000,,2013-07-11 01:43:00,
2013-07-10 18:52:00,96.0,43.0,29.90,West,269,13.0,22.0,16,0.00,,,0.00,39.000000,,2013-07-11 01:52:00,
2013-07-10 19:01:00,95.0,40.0,29.90,SSW,206,10.0,17.0,15,0.00,,,0.00,44.000000,,2013-07-11 02:01:00,
2013-07-10 19:11:00,95.0,42.0,29.90,WSW,237,11.0,17.0,16,0.00,,,0.00,37.000000,,2013-07-11 02:11:00,
2013-07-10 19:22:00,95.0,42.0,29.90,SW,225,8.0,15.0,16,0.00,,,0.00,30.000000,,2013-07-11 02:22:00,
2013-07-10 19:32:00,95.0,40.0,29.90,WSW,248,9.0,16.0,15,0.00,,,0.00,28.000000,,2013-07-11 02:32:00,
2013-07-10 19:43:00,94.0,39.0,29.93,SW,223,7.0,16.0,15,0.00,,,0.00,19.000000,,2013-07-11 02:43:00,
2013-07-10 19:53:00,94.0,39.0,29.93,WSW,258,5.0,13.0,15,0.00,,,0.00,18.000000,,2013-07-11 02:53:00,
2013-07-10 20:01:00,94.0,41.0,29.93,WSW,243,10.0,15.0,16,0.00,,,0.00,14.000000,,2013-07-11 03:01:00,
2013-07-10 20:11:00,93.0,40.0,29.93,West,259,10.0,17.0,16,0.00,,,0.00,9.000000,,2013-07-11 03:11:00,
2013-07-10 20:21:00,93.0,42.0,29.90,SW,235,9.0,18.0,17,0.00,,,0.00,0.000000,,2013-07-11 03:21:00,
2013-07-10 20:33:00,93.0,42.0,29.90,SW,235,5.0,15.0,17,0.00,,,0.00,0.000000,,2013-07-11 03:33:00,
2013-07-10 20:42:00,92.0,42.0,29.93,SW,231,6.0,13.0,18,0.00,,,0.00,0.000000,,2013-07-11 03:42:00,
2013-07-10 20:52:00,92.0,42.0,29.93,West,259,5.0,9.0,18,0.00,,,0.00,0.000000,,2013-07-11 03:52:00,
2013-07-10 21:01:00,92.0,44.0,29.93,SSW,206,4.0,6.0,19,0.00,,,0.00,0.000000,,2013-07-11 04:01:00,
2013-07-10 21:11:00,91.0,43.0,29.93,SSW,204,5.0,11.0,19,0.00,,,0.00,0.000000,,2013-07-11 04:11:00,
2013-07-10 21:22:00,91.0,42.0,29.91,SSW,198,5.0,13.0,18,0.00,,,0.00,0.000000,,2013-07-11 04:22:00,
2013-07-10 21:32:00,91.0,42.0,29.91,West,261,8.0,12.0,18,0.00,,,0.00,0.000000,,2013-07-11 04:32:00,
2013-07-10 21:42:00,91.0,42.0,29.94,WSW,247,10.0,17.0,18,0.00,,,0.00,0.000000,,2013-07-11 04:42:00,
2013-07-10 22:01:00,92.0,41.0,29.93,West,277,12.0,17.0,17,0.00,,,0.00,0.000000,,2013-07-11 05:01:00,
2013-07-10 22:12:00,92.0,41.0,29.93,WSW,238,4.0,12.0,17,0.00,,,0.00,0.000000,,2013-07-11 05:12:00,
2013-07-10 22:22:00,92.0,41.0,29.95,WSW,257,5.0,12.0,17,0.00,,,0.00,0.000000,,2013-07-11 05:22:00,
2013-07-10 22:32:00,92.0,42.0,29.95,SW,219,6.0,11.0,18,0.00,,,0.00,0.000000,,2013-07-11 05:32:00,
2013-07-10 22:43:00,92.0,42.0,29.94,SW,217,3.0,6.0,18,0.00,,,0.00,0.000000,,2013-07-11 05:43:00,
2013-07-10 22:52:00,91.0,42.0,29.95,West,269,4.0,9.0,18,0.00,,,0.00,0.000000,,2013-07-11 05:52:00,
2013-07-10 23:01:00,91.0,44.0,29.95,SW,229,10.0,17.0,20,0.00,,,0.00,0.000000,,2013-07-11 06:01:00,
2013-07-10 23:11:00,90.0,43.0,29.93,West,266,11.0,22.0,20,0.00,,,0.00,0.000000,,2013-07-11 06:11:00,
2013-07-10 23:22:00,90.0,43.0,29.93,West,265,13.0,26.0,20,0.00,,,0.00,0.000000,,2013-07-11 06:22:00,
2013-07-10 23:32:00,91.0,44.0,29.93,West,268,14.0,22.0,20,0.00,,,0.00,0.000000,,2013-07-11 06:32:00,
2013-07-10 23:43:00,91.0,44.0,29.92,WSW,243,9.0,18.0,20,0.00,,,0.00,0.000000,,2013-07-11 06:43:00,